EN

Hourly Weather Kuntaur

Today, 3 December, Thursday

Time Temperature Precipitation Wind Pressure Humidity
00:00 +27°C° 0 mm 3 mps 757 mmHg 31%
01:00 +26°C° 0 mm 3 mps 757 mmHg 36%
02:00 +25°C° 0 mm 3 mps 757 mmHg 41%
03:00 +24°C° 0 mm 2 mps 757 mmHg 46%
04:00 +23°C° 0 mm 2 mps 758 mmHg 50%
05:00 +22°C° 0 mm 1 mps 758 mmHg 56%
06:00 +24°C° 0 mm 2 mps 758 mmHg 50%
07:00 +25°C° 0 mm 3 mps 759 mmHg 44%
08:00 +27°C° 0 mm 3 mps 759 mmHg 38%
09:00 +30°C° 0 mm 3 mps 759 mmHg 32%
10:00 +34°C° 0 mm 4 mps 759 mmHg 25%
11:00 +37°C° 0 mm 4 mps 759 mmHg 20%
12:00 +38°C° 0 mm 4 mps 758 mmHg 18%
13:00 +39°C° 0 mm 3 mps 757 mmHg 17%
14:00 +42°C° 0 mm 3 mps 756 mmHg 15%
15:00 +40°C° 0 mm 2 mps 756 mmHg 16%
16:00 +39°C° 0 mm 2 mps 756 mmHg 17%
17:00 +37°C° 0 mm 1 mps 756 mmHg 17%
18:00 +36°C° 0 mm 2 mps 756 mmHg 20%
19:00 +34°C° 0 mm 2 mps 757 mmHg 23%
20:00 +30°C° 0 mm 3 mps 758 mmHg 25%
21:00 +29°C° 0 mm 3 mps 758 mmHg 27%
22:00 +29°C° 0 mm 3 mps 758 mmHg 29%
23:00 +28°C° 0 mm 3 mps 758 mmHg 31%

Tomorrow, 4 December, Friday

Time Temperature Precipitation Wind Pressure Humidity
00:00 +27°C° 0 mm 3 mps 758 mmHg 34%
01:00 +26°C° 0 mm 3 mps 758 mmHg 36%
02:00 +25°C° 0 mm 3 mps 757 mmHg 38%
03:00 +24°C° 0 mm 3 mps 757 mmHg 38%
04:00 +24°C° 0 mm 2 mps 757 mmHg 38%
05:00 +23°C° 0 mm 2 mps 758 mmHg 38%
06:00 +25°C° 0 mm 2 mps 758 mmHg 34%
07:00 +26°C° 0 mm 2 mps 759 mmHg 30%
08:00 +28°C° 0 mm 2 mps 759 mmHg 27%
09:00 +31°C° 0 mm 3 mps 759 mmHg 23%
10:00 +35°C° 0 mm 3 mps 759 mmHg 19%
11:00 +38°C° 0 mm 3 mps 759 mmHg 16%
12:00 +39°C° 0 mm 3 mps 758 mmHg 15%
13:00 +40°C° 0 mm 2 mps 757 mmHg 13%
14:00 +42°C° 0 mm 2 mps 756 mmHg 12%
15:00 +41°C° 0 mm 2 mps 756 mmHg 13%
16:00 +39°C° 0 mm 1 mps 756 mmHg 13%
17:00 +37°C° 0 mm 1 mps 756 mmHg 14%
18:00 +35°C° 0 mm 1 mps 756 mmHg 16%
19:00 +34°C° 0 mm 2 mps 757 mmHg 19%
20:00 +31°C° 0 mm 3 mps 757 mmHg 21%
21:00 +29°C° 0 mm 3 mps 757 mmHg 24%
22:00 +28°C° 0 mm 3 mps 758 mmHg 26%
23:00 +27°C° 0 mm 3 mps 758 mmHg 29%

Day after tomorrow, 5 December, Saturday

Time Temperature Precipitation Wind Pressure Humidity
00:00 +26°C° 0 mm 3 mps 758 mmHg 32%
01:00 +25°C° 0 mm 3 mps 757 mmHg 36%
02:00 +24°C° 0 mm 3 mps 757 mmHg 40%
03:00 +24°C° 0 mm 2 mps 757 mmHg 43%
04:00 +23°C° 0 mm 2 mps 757 mmHg 46%
05:00 +22°C° 0 mm 1 mps 757 mmHg 49%
06:00 +24°C° 0 mm 1 mps 758 mmHg 43%
07:00 +26°C° 0 mm 2 mps 758 mmHg 37%
08:00 +28°C° 0 mm 2 mps 759 mmHg 30%
09:00 +30°C° 0 mm 3 mps 759 mmHg 26%
10:00 +34°C° 0 mm 3 mps 758 mmHg 21%
11:00 +37°C° 0 mm 3 mps 758 mmHg 17%
12:00 +38°C° 0 mm 3 mps 757 mmHg 15%
13:00 +40°C° 0 mm 3 mps 756 mmHg 14%
14:00 +42°C° 0 mm 3 mps 756 mmHg 13%
15:00 +40°C° 0 mm 3 mps 755 mmHg 14%
16:00 +39°C° 0 mm 2 mps 755 mmHg 15%
17:00 +38°C° 0 mm 2 mps 755 mmHg 16%
18:00 +36°C° 0 mm 2 mps 756 mmHg 18%
19:00 +32°C° 0 mm 2 mps 756 mmHg 21%
20:00 +30°C° 0 mm 2 mps 757 mmHg 23%
21:00 +29°C° 0 mm 2 mps 757 mmHg 26%
22:00 +28°C° 0 mm 3 mps 757 mmHg 29%
23:00 +27°C° 0 mm 3 mps 757 mmHg 32%

6 December, Sunday

Time Temperature Precipitation Wind Pressure Humidity
00:00 +26°C° 0 mm 3 mps 757 mmHg 34%
01:00 +25°C° 0 mm 3 mps 757 mmHg 36%
02:00 +25°C° 0 mm 3 mps 757 mmHg 38%
03:00 +24°C° 0 mm 3 mps 757 mmHg 39%
04:00 +24°C° 0 mm 2 mps 757 mmHg 39%
05:00 +23°C° 0 mm 2 mps 757 mmHg 40%
06:00 +25°C° 0 mm 2 mps 757 mmHg 37%
07:00 +26°C° 0 mm 2 mps 758 mmHg 34%
08:00 +27°C° 0 mm 2 mps 758 mmHg 31%
09:00 +30°C° 0 mm 2 mps 758 mmHg 27%
10:00 +34°C° 0 mm 3 mps 758 mmHg 22%
11:00 +37°C° 0 mm 3 mps 757 mmHg 18%
12:00 +38°C° 0 mm 3 mps 756 mmHg 17%
13:00 +39°C° 0 mm 3 mps 756 mmHg 15%
14:00 +40°C° 0 mm 2 mps 755 mmHg 14%
15:00 +39°C° 0 mm 2 mps 755 mmHg 15%
16:00 +38°C° 0 mm 2 mps 755 mmHg 15%
17:00 +36°C° 0 mm 1 mps 754 mmHg 16%
18:00 +34°C° 0 mm 1 mps 755 mmHg 18%
19:00 +33°C° 0 mm 1 mps 756 mmHg 19%
20:00 +31°C° 0 mm 2 mps 756 mmHg 21%
21:00 +30°C° 0 mm 2 mps 757 mmHg 23%
22:00 +28°C° 0 mm 2 mps 757 mmHg 25%
23:00 +27°C° 0 mm 3 mps 757 mmHg 27%

7 December, Monday

Time Temperature Precipitation Wind Pressure Humidity
00:00 +26°C° 0 mm 3 mps 757 mmHg 28%
01:00 +25°C° 0 mm 3 mps 757 mmHg 29%
02:00 +25°C° 0 mm 3 mps 757 mmHg 31%
03:00 +24°C° 0 mm 2 mps 757 mmHg 32%
04:00 +23°C° 0 mm 2 mps 757 mmHg 33%
05:00 +22°C° 0 mm 1 mps 757 mmHg 35%
06:00 +24°C° 0 mm 2 mps 758 mmHg 31%
07:00 +26°C° 0 mm 2 mps 758 mmHg 28%
08:00 +27°C° 0 mm 3 mps 759 mmHg 25%
09:00 +30°C° 0 mm 3 mps 759 mmHg 22%
10:00 +34°C° 0 mm 3 mps 758 mmHg 19%
11:00 +37°C° 0 mm 3 mps 758 mmHg 16%
12:00 +38°C° 0 mm 3 mps 757 mmHg 15%
13:00 +39°C° 0 mm 3 mps 757 mmHg 14%
14:00 +40°C° 0 mm 2 mps 756 mmHg 13%
15:00 +39°C° 0 mm 2 mps 756 mmHg 14%
16:00 +37°C° 0 mm 1 mps 756 mmHg 15%
17:00 +36°C° 0 mm 1 mps 756 mmHg 15%
18:00 +34°C° 0 mm 1 mps 756 mmHg 18%
19:00 +32°C° 0 mm 1 mps 757 mmHg 20%
20:00 +29°C° 0 mm 2 mps 757 mmHg 23%
21:00 +29°C° 0 mm 2 mps 758 mmHg 24%
22:00 +28°C° 0 mm 2 mps 758 mmHg 25%
23:00 +27°C° 0 mm 2 mps 758 mmHg 27%

8 December, Tuesday

Time Temperature Precipitation Wind Pressure Humidity
00:00 +26°C° 0 mm 2 mps 758 mmHg 28%
01:00 +25°C° 0 mm 2 mps 758 mmHg 29%
02:00 +24°C° 0 mm 2 mps 758 mmHg 31%
03:00 +24°C° 0 mm 2 mps 758 mmHg 32%
04:00 +23°C° 0 mm 2 mps 758 mmHg 32%
05:00 +23°C° 0 mm 2 mps 758 mmHg 33%
06:00 +24°C° 0 mm 3 mps 759 mmHg 30%
07:00 +26°C° 0 mm 3 mps 759 mmHg 27%
08:00 +27°C° 0 mm 3 mps 760 mmHg 25%
09:00 +32°C° 0 mm 4 mps 760 mmHg 21%
10:00 +35°C° 0 mm 4 mps 760 mmHg 18%
11:00 +38°C° 0 mm 4 mps 759 mmHg 14%
12:00 +40°C° 0 mm 4 mps 758 mmHg 13%
13:00 +40°C° 0 mm 3 mps 757 mmHg 13%
14:00 +42°C° 0 mm 3 mps 757 mmHg 12%
15:00 +40°C° 0 mm 3 mps 757 mmHg 12%
16:00 +39°C° 0 mm 2 mps 757 mmHg 13%
17:00 +38°C° 0 mm 2 mps 757 mmHg 14%
18:00 +36°C° 0 mm 2 mps 757 mmHg 16%
19:00 +34°C° 0 mm 3 mps 758 mmHg 18%
20:00 +30°C° 0 mm 3 mps 758 mmHg 20%
21:00 +29°C° 0 mm 3 mps 758 mmHg 22%
22:00 +28°C° 0 mm 3 mps 758 mmHg 23%
23:00 +27°C° 0 mm 4 mps 758 mmHg 25%
Show more

We Need Your Consent

Meteoprog and our Service Providers may store and access personal data such as cookies, device identifiers or other similar technologies on your device and process such data to personalise content and ads, as well as provide social media features and to analyse the traffic.

  • Store and/or access information on your device

    Cookies, device identifiers or other information can be stored or accessed on your device for the purposes indicated above.

  • Personalised ads and content, ad and content measurement, audience insights, and products development

    Ads and content can be personalised based on a profile. More data can be added to better personalise ads and content. Ad and content performance can be measured. Insights about the audience who saw the ads and content can be derived. Such data can be used to develop or improve user’s experience, systems and software.

By clicking ‘I Agree’ you will allow the use of indicated cookies, device identifiers, web beacons or other similar technologies. Your settings can be changed in the browser on your device.

For certain purposes, legitimate interests may be relied on, rather than consent. You can read more about this in our Privacy and Cookie Policy.